Whitefield, NH

2:18 PM EDT on March 24, 2017 (GMT -0400)
Mount Washington Regional

Weather History for KHIE - April, 2014

Change the Weather History Date:

Tuesday, April 15, 2014

  Actual Average Record
Temperature  
Mean Temperature 50 °F -  
Max Temperature 69 °F 52 °F 79 °F (2003)
Min Temperature 32 °F 24 °F 14 °F (1997)
Degree Days  
Heating Degree Days 14    
Moisture  
Dew Point 44 °F    
Average Humidity 80    
Maximum Humidity 93    
Minimum Humidity 58    
Precipitation  
Precipitation 0.96 in - - ()
Sea Level Pressure  
Sea Level Pressure 29.65 in    
Wind  
Wind Speed 9 mph (WSW)    
Max Wind Speed 20 mph    
Max Gust Speed 29 mph    
Visibility 5 miles    
Events Fog , Rain , Snow    
Averages and records for this station are not official NWS values.
T = Trace of Precipitation, MM = Missing Value Source: NWS Daily Summary

Daily Weather History Graph

Daily Weather History Graph

Search for Another Location

Airport or City:

Trip Planner

Search our weather history database for the weather conditions in past years. The results will help you decide how hot, cold, wet, or windy it might be!

Date:

Astronomy

Apr. 15, 2014 Rise Set
Actual Time 6:02 AM EDT 7:30 PM EDT
Civil Twilight 5:32 AM EDT 8:01 PM EDT
Nautical Twilight 4:55 AM EDT 8:37 PM EDT
Astronomical Twilight 4:16 AM EDT 9:17 PM EDT
Moon 8:10 PM EDT (4/15) 6:08 AM EDT (4/15)
Length of Visible Light 14h 28m
Length of Day
13h 28m
Full, 100% of the Moon is Illuminated
Apr 15
Full
Apr 22
Last Quarter
Apr 29
New
May 6
First Quarter
May 14
Full

Hourly Weather History & Observations

Time (EDT) Temp. Windchill Dew Point Humidity Pressure Visibility Wind Dir Wind Speed Gust Speed Precip Events Conditions
12:52 AM 63.0 °F - 48.0 °F 58% 29.75 in 10.0 mi Variable 5.8 mph - N/A   Clear
1:52 AM 63.0 °F - 48.9 °F 60% 29.75 in 10.0 mi South 9.2 mph - N/A   Partly Cloudy
2:52 AM 62.1 °F - 48.9 °F 62% 29.73 in 10.0 mi South 8.1 mph - N/A   Clear
3:52 AM 62.1 °F - 50.0 °F 65% 29.73 in 10.0 mi SSW 8.1 mph - N/A   Partly Cloudy
4:52 AM 63.0 °F - 51.1 °F 65% 29.73 in 10.0 mi South 9.2 mph - N/A   Overcast
5:52 AM 64.0 °F - 51.1 °F 63% 29.71 in 10.0 mi South 10.4 mph 19.6 mph N/A   Overcast
6:52 AM 64.9 °F - 52.0 °F 63% 29.70 in 10.0 mi South 12.7 mph 21.9 mph N/A   Overcast
7:52 AM 64.9 °F - 53.1 °F 65% 29.68 in 10.0 mi SSW 10.4 mph 17.3 mph N/A   Overcast
8:52 AM 64.9 °F - 53.1 °F 65% 29.65 in 10.0 mi South 8.1 mph 26.5 mph 0.00 in Rain Light Rain
9:52 AM 66.9 °F - 52.0 °F 59% 29.62 in 10.0 mi South 9.2 mph 25.3 mph 0.00 in   Overcast
10:52 AM 68.0 °F - 54.0 °F 61% 29.60 in 10.0 mi South 13.8 mph 25.3 mph N/A   Overcast
11:52 AM 68.0 °F - 54.0 °F 61% 29.56 in 10.0 mi South 19.6 mph 28.8 mph N/A   Overcast
12:52 PM 68.0 °F - 54.0 °F 61% 29.52 in 10.0 mi South 10.4 mph 28.8 mph N/A   Overcast
1:52 PM 64.9 °F - 57.0 °F 75% 29.49 in 5.0 mi South 8.1 mph - 0.01 in Rain Light Rain
2:52 PM 64.0 °F - 57.0 °F 78% 29.45 in 6.0 mi South 11.5 mph 27.6 mph 0.05 in Rain Light Rain
3:52 PM 63.0 °F - 57.0 °F 81% 29.45 in 7.0 mi South 10.4 mph - 0.02 in Rain Light Rain
5:38 PM 55.9 °F - 53.1 °F 90% 29.46 in 1.8 mi WNW 10.4 mph - 0.07 in Rain Rain
5:52 PM 53.1 °F - 50.0 °F 89% 29.48 in 1.5 mi NW 17.3 mph - 0.15 in Rain Heavy Rain
6:10 PM 51.1 °F - 48.0 °F 89% 29.52 in 1.5 mi NW 11.5 mph - 0.09 in Rain Rain
6:34 PM 48.9 °F - 46.0 °F 90% 29.55 in 1.0 mi North 9.2 mph - 0.22 in Rain Rain
6:52 PM 46.9 °F - 45.0 °F 93% 29.57 in 1.2 mi North 6.9 mph - 0.29 in Rain Rain
7:04 PM 46.9 °F - 44.1 °F 90% 29.58 in 1.5 mi North 5.8 mph - 0.04 in Rain Rain
7:13 PM 46.0 °F 43.1 °F 44.1 °F 93% 29.60 in 2.5 mi NNW 5.8 mph - 0.07 in Rain Rain
7:26 PM 46.0 °F 43.1 °F 43.0 °F 89% 29.61 in 1.8 mi North 5.8 mph - 0.13 in Rain Rain
7:35 PM 45.0 °F 40.6 °F 43.0 °F 93% 29.62 in 2.0 mi NW 8.1 mph - 0.18 in Rain Rain
7:42 PM 45.0 °F 41.2 °F 42.1 °F 90% 29.63 in 2.5 mi NW 6.9 mph - 0.20 in Rain Rain
7:52 PM 44.1 °F 39.5 °F 41.0 °F 89% 29.64 in 3.0 mi NNW 8.1 mph - 0.23 in Rain Rain
8:37 PM 41.0 °F 35.8 °F 37.9 °F 89% 29.67 in 4.0 mi NW 8.1 mph - 0.08 in Rain Light Rain
9:15 PM 39.0 °F 31.0 °F 36.0 °F 89% 29.71 in 2.0 mi WNW 13.8 mph 18.4 mph 0.02 in Rain Light Rain
9:28 PM 37.0 °F 28.9 °F 34.0 °F 89% 29.73 in 4.0 mi West 12.7 mph - 0.03 in Rain Light Rain
9:38 PM 36.0 °F 28.5 °F 33.1 °F 89% 29.74 in 3.0 mi WNW 10.4 mph - 0.03 in Rain Light Rain
9:48 PM 35.6 °F 30.7 °F 33.8 °F 93% 29.75 in 2.5 mi West 5.8 mph 17.3 mph 0.04 in Rain Light Rain
9:52 PM 35.1 °F 31.0 °F 33.1 °F 92% 29.77 in 2.5 mi Variable 4.6 mph - 0.04 in Snow Light Snow
10:02 PM 34.0 °F 29.8 °F 32.0 °F 92% 29.76 in 1.2 mi West 4.6 mph - 0.02 in Snow Light Snow
10:10 PM 34.0 °F 28.8 °F 32.0 °F 92% 29.76 in 1.2 mi WSW 5.8 mph - 0.04 in Snow Light Snow
10:21 PM 34.0 °F 28.0 °F 30.9 °F 89% 29.77 in 1.0 mi WSW 6.9 mph - 0.05 in Snow Light Snow
10:41 PM 33.1 °F 26.1 °F 30.0 °F 89% 29.76 in 1.2 mi West 8.1 mph - 0.07 in Snow Light Snow
10:52 PM 33.1 °F 27.7 °F 30.0 °F 89% 29.78 in 1.0 mi West 5.8 mph - 0.08 in Snow Light Snow
11:08 PM 33.1 °F 26.9 °F 30.0 °F 89% 29.78 in 0.8 mi West 6.9 mph - 0.03 in Snow Light Snow
11:52 PM 32.0 °F 25.6 °F 30.0 °F 92% 29.81 in 0.5 mi West 6.9 mph - 0.09 in Fog , Snow Snow